Satellite-Ground Cal/Val Site Overpasses Predictions

Prediction of Satellite NPP Overpassing Cal/Val Site: Antarctic Dome C

Ground Cal/Val Site Location: Latitude: -75.10, Longitude: 123.35; Satellite-Ground Site NADIR distance within 100 km.

Table of predicted overpasses for the next 14.0 days since TLE Epoch: 5/1/2020
Interval Starting Time Ending Time Minimum Distance Time Minimum Distance (km)
1 05/02/2020 15:00:55 05/02/2020 15:01:19 05/02/2020 15:01:07 58.79
2 05/03/2020 14:42:04 05/03/2020 14:42:30 05/03/2020 14:42:17 50.34
3 05/04/2020 07:43:46 05/04/2020 07:44:06 05/04/2020 07:43:56 70.39
4 05/05/2020 07:24:54 05/05/2020 07:25:21 05/05/2020 07:25:07 37.53
5 05/07/2020 15:07:20 05/07/2020 15:07:27 05/07/2020 15:07:24 96.43
6 05/08/2020 14:48:19 05/08/2020 14:48:48 05/08/2020 14:48:33 14.90
7 05/10/2020 07:31:08 05/10/2020 07:31:37 05/10/2020 07:31:23 3.18
8 05/13/2020 14:54:35 05/13/2020 14:55:04 05/13/2020 14:54:49 21.68
9 05/14/2020 14:35:52 05/14/2020 14:36:07 05/14/2020 14:36:00 85.51


NCC Satellite Cal/Val Overpasses Prediction Service
